Private Wetterstation Wechselburg
Wetterdaten: Montag, 19.03.2018
Datum Zeit Temp. +2m Bodentemp. Temp.+5cm Temp. Wind Windchill X Diff Temp. Feuchte +2m Feuchte +5cm Luftdruck Regen Wind Richtung Richtung Sonnenschein Taupunkt Windchill Windben
19.03.2018 00:00 -5,9 C 1,3 C -6,1 C -7,1 C -9,4 C 0,0 C 62 % 69 % 1015,5 hPa 0,0 l/m 4,8 km/h (1 Bft) NO 45 0 min -12,0 C -12,1 C 8,0 km/h (2 Bft)
19.03.2018 00:05 -5,9 C 1,3 C -6,1 C -7,0 C -9,3 C 0,0 C 62 % 69 % 1015,5 hPa 0,0 l/m 4,8 km/h (1 Bft) NO 45 0 min -12,0 C -12,0 C 4,0 km/h (1 Bft)
19.03.2018 00:10 -6,0 C 1,3 C -6,1 C -7,1 C -9,3 C 0,0 C 62 % 69 % 1015,5 hPa 0,0 l/m 4,7 km/h (1 Bft) NO 45 0 min -12,1 C -11,9 C 6,1 km/h (2 Bft)
19.03.2018 00:15 -6,0 C 1,3 C -6,2 C -7,1 C -9,4 C 0,0 C 63 % 69 % 1015,7 hPa 0,0 l/m 4,8 km/h (1 Bft) O-NO 67 0 min -11,9 C -12,1 C 6,0 km/h (2 Bft)
19.03.2018 00:20 -6,0 C 1,3 C -6,2 C -7,3 C -9,8 C 0,0 C 63 % 69 % 1015,7 hPa 0,0 l/m 5,6 km/h (1 Bft) NO 45 0 min -11,9 C -13,1 C 6,8 km/h (2 Bft)
19.03.2018 00:25 -6,0 C 1,3 C -6,3 C -7,2 C -9,5 C 0,0 C 63 % 69 % 1015,7 hPa 0,0 l/m 5,1 km/h (1 Bft) NO 45 0 min -11,9 C -12,4 C 3,7 km/h (1 Bft)
19.03.2018 00:30 -5,9 C 1,3 C -6,3 C -7,0 C -9,1 C 0,0 C 63 % 69 % 1015,7 hPa 0,0 l/m 4,3 km/h (1 Bft) O-NO 67 0 min -11,8 C -9,1 C 12,6 km/h (3 Bft)
19.03.2018 00:35 -6,1 C 1,3 C -6,3 C -7,1 C -9,2 C 0,0 C 63 % 69 % 1015,3 hPa 0,0 l/m 4,2 km/h (1 Bft) O-NO 67 0 min -12,0 C -9,2 C 5,3 km/h (1 Bft)
19.03.2018 00:40 -6,1 C 1,3 C -6,3 C -7,1 C -9,2 C 0,0 C 63 % 69 % 1015,3 hPa 0,0 l/m 4,2 km/h (1 Bft) NO 45 0 min -12,0 C -9,2 C 3,9 km/h (1 Bft)
19.03.2018 00:45 -6,1 C 1,3 C -6,5 C -6,9 C -8,6 C 0,0 C 63 % 70 % 1015,3 hPa 0,0 l/m 3,2 km/h (1 Bft) O-NO 67 0 min -12,0 C -8,6 C 4,0 km/h (1 Bft)
19.03.2018 00:50 -6,2 C 1,3 C -6,5 C -6,9 C -8,3 C 0,0 C 63 % 70 % 1015,3 hPa 0,0 l/m 2,9 km/h (1 Bft) NO 45 0 min -12,1 C -8,3 C 2,6 km/h (1 Bft)
19.03.2018 00:55 -6,1 C 1,3 C -6,5 C -7,0 C -8,7 C 0,0 C 63 % 70 % 1015,5 hPa 0,0 l/m 3,2 km/h (1 Bft) O-NO 67 0 min -12,0 C -8,7 C 3,1 km/h (1 Bft)
19.03.2018 01:00 -6,3 C 1,3 C -6,5 C -7,1 C -8,7 C 0,0 C 63 % 70 % 1015,5 hPa 0,0 l/m 3,1 km/h (1 Bft) O-NO 67 0 min -12,2 C -8,7 C 3,7 km/h (1 Bft)
19.03.2018 01:05 -6,4 C 1,3 C -6,8 C -7,0 C -8,3 C 0,0 C 63 % 71 % 1015,5 hPa 0,0 l/m 2,4 km/h (1 Bft) N 360 0 min -12,3 C -8,3 C 2,1 km/h (1 Bft)
19.03.2018 01:10 -6,5 C 1,3 C -6,9 C -6,9 C -7,8 C 0,0 C 64 % 71 % 1015,5 hPa 0,0 l/m 1,6 km/h (1 Bft) NO 45 0 min -12,2 C -7,8 C 1,9 km/h (1 Bft)
19.03.2018 01:15 -6,5 C 1,3 C -6,9 C -7,1 C -8,2 C 0,0 C 64 % 71 % 1015,2 hPa 0,0 l/m 2,1 km/h (1 Bft) NO 45 0 min -12,2 C -8,2 C 3,5 km/h (1 Bft)
19.03.2018 01:20 -6,5 C 1,3 C -7,0 C -7,2 C -8,7 C 0,0 C 64 % 71 % 1015,2 hPa 0,0 l/m 2,6 km/h (1 Bft) O-NO 67 0 min -12,2 C -8,7 C 3,1 km/h (1 Bft)
19.03.2018 01:25 -6,5 C 1,3 C -6,9 C -7,4 C -9,1 C 0,0 C 64 % 72 % 1015,2 hPa 0,0 l/m 2,9 km/h (1 Bft) O-NO 67 0 min -12,2 C -9,1 C 3,4 km/h (1 Bft)
19.03.2018 01:30 -6,5 C 1,3 C -6,9 C -7,5 C -9,4 C 0,0 C 65 % 71 % 1015,2 hPa 0,0 l/m 3,2 km/h (1 Bft) NO 45 0 min -12,0 C -9,4 C 4,3 km/h (1 Bft)
19.03.2018 01:35 -6,7 C 1,3 C -6,9 C -7,7 C -9,7 C 0,0 C 65 % 72 % 1015,0 hPa 0,0 l/m 3,5 km/h (1 Bft) O-NO 67 0 min -12,2 C -9,7 C 3,2 km/h (1 Bft)
19.03.2018 01:40 -6,7 C 1,3 C -6,9 C -7,7 C -9,7 C 0,0 C 65 % 72 % 1015,0 hPa 0,0 l/m 3,5 km/h (1 Bft) NO 45 0 min -12,2 C -9,7 C 3,5 km/h (1 Bft)
19.03.2018 01:45 -6,8 C 1,3 C -7,1 C -7,7 C -9,4 C 0,0 C 65 % 72 % 1015,0 hPa 0,0 l/m 3,1 km/h (1 Bft) NO 45 0 min -12,2 C -9,4 C 2,6 km/h (1 Bft)
19.03.2018 01:50 -6,9 C 1,3 C -7,2 C -7,8 C -9,5 C 0,0 C 65 % 72 % 1015,0 hPa 0,0 l/m 3,1 km/h (1 Bft) N-NO 22 0 min -12,3 C -9,5 C 4,0 km/h (1 Bft)
19.03.2018 01:55 -6,9 C 1,3 C -7,1 C -7,7 C -9,4 C 0,0 C 65 % 72 % 1015,0 hPa 0,0 l/m 2,9 km/h (1 Bft) O-NO 67 0 min -12,3 C -9,4 C 3,4 km/h (1 Bft)
19.03.2018 02:00 -6,9 C 1,3 C -7,3 C -7,7 C -9,4 C 0,0 C 65 % 72 % 1015,0 hPa 0,0 l/m 2,9 km/h (1 Bft) O-NO 67 0 min -12,3 C -9,4 C 2,3 km/h (1 Bft)
19.03.2018 02:05 -6,9 C 1,3 C -7,3 C -7,6 C -9,0 C 0,0 C 66 % 72 % 1015,0 hPa 0,0 l/m 2,3 km/h (1 Bft) NO 45 0 min -12,2 C -9,0 C 2,7 km/h (1 Bft)
19.03.2018 02:10 -7,1 C 1,3 C -7,3 C -7,7 C -8,8 C 0,0 C 66 % 73 % 1015,0 hPa 0,0 l/m 2,1 km/h (1 Bft) NO 45 0 min -12,3 C -8,8 C 4,2 km/h (1 Bft)
19.03.2018 02:15 -7,1 C 1,3 C -7,5 C -7,9 C -9,5 C 0,0 C 66 % 73 % 1014,6 hPa 0,0 l/m 2,7 km/h (1 Bft) NO 45 0 min -12,3 C -9,5 C 3,9 km/h (1 Bft)
19.03.2018 02:20 -7,2 C 1,3 C -7,5 C -8,1 C -9,9 C 0,0 C 66 % 73 % 1014,6 hPa 0,0 l/m 3,2 km/h (1 Bft) NO 45 0 min -12,4 C -9,9 C 3,5 km/h (1 Bft)
19.03.2018 02:25 -7,2 C 1,3 C -7,5 C -8,1 C -9,9 C 0,0 C 67 % 73 % 1014,6 hPa 0,0 l/m 3,2 km/h (1 Bft) N-NO 22 0 min -12,3 C -9,9 C 3,5 km/h (1 Bft)
19.03.2018 02:30 -7,3 C 1,3 C -7,6 C -8,1 C -9,8 C 0,0 C 67 % 73 % 1014,6 hPa 0,0 l/m 2,9 km/h (1 Bft) NO 45 0 min -12,4 C -9,8 C 2,3 km/h (1 Bft)
19.03.2018 02:35 -7,3 C 1,3 C -7,7 C -8,1 C -9,6 C 0,0 C 67 % 73 % 1014,7 hPa 0,0 l/m 2,6 km/h (1 Bft) NO 45 0 min -12,4 C -9,6 C 3,5 km/h (1 Bft)
19.03.2018 02:40 -7,3 C 1,3 C -7,7 C -8,1 C -9,8 C 0,0 C 67 % 73 % 1014,7 hPa 0,0 l/m 2,7 km/h (1 Bft) O-NO 67 0 min -12,4 C -9,8 C 2,9 km/h (1 Bft)
19.03.2018 02:45 -7,3 C 1,3 C -7,7 C -8,1 C -9,7 C 0,0 C 67 % 73 % 1014,7 hPa 0,0 l/m 2,6 km/h (1 Bft) O-NO 67 0 min -12,4 C -9,7 C 3,1 km/h (1 Bft)
19.03.2018 02:50 -7,3 C 1,3 C -7,7 C -8,0 C -9,5 C 0,0 C 67 % 73 % 1014,7 hPa 0,0 l/m 2,4 km/h (1 Bft) O-NO 67 0 min -12,4 C -9,5 C 2,1 km/h (1 Bft)
19.03.2018 02:55 -7,5 C 1,3 C -7,7 C -8,0 C -9,1 C 0,0 C 67 % 73 % 1014,7 hPa 0,0 l/m 1,6 km/h (1 Bft) O-NO 67 0 min -12,5 C -9,1 C 0,0 km/h (0 Bft)
19.03.2018 03:00 -7,6 C 1,3 C -7,9 C -8,1 C -9,2 C 0,0 C 67 % 73 % 1014,7 hPa 0,0 l/m 0,8 km/h (0 Bft) NO 45 0 min -12,6 C -9,2 C 0,0 km/h (0 Bft)
19.03.2018 03:05 -7,7 C 1,3 C -8,0 C -8,2 C -9,3 C 0,0 C 67 % 73 % 1014,7 hPa 0,0 l/m 1,0 km/h (0 Bft) NO 45 0 min -12,7 C -9,3 C 1,8 km/h (1 Bft)
19.03.2018 03:10 -7,7 C 1,3 C -8,0 C -8,3 C -9,4 C 0,0 C 67 % 73 % 1014,7 hPa 0,0 l/m 1,6 km/h (1 Bft) NO 45 0 min -12,7 C -9,4 C 2,9 km/h (1 Bft)
19.03.2018 03:15 -7,7 C 1,3 C -8,0 C -8,5 C -10,1 C 0,0 C 67 % 74 % 1014,4 hPa 0,0 l/m 2,4 km/h (1 Bft) O-NO 67 0 min -12,7 C -10,1 C 2,7 km/h (1 Bft)
19.03.2018 03:20 -7,7 C 1,3 C -7,9 C -8,5 C -10,2 C 0,0 C 67 % 74 % 1014,4 hPa 0,0 l/m 2,6 km/h (1 Bft) NO 45 0 min -12,7 C -10,2 C 4,0 km/h (1 Bft)
19.03.2018 03:25 -7,7 C 1,3 C -8,1 C -8,7 C -10,7 C 0,0 C 67 % 74 % 1014,4 hPa 0,0 l/m 3,1 km/h (1 Bft) NO 45 0 min -12,7 C -10,7 C 3,4 km/h (1 Bft)
19.03.2018 03:30 -7,7 C 1,3 C -8,1 C -8,6 C -10,5 C 0,0 C 67 % 74 % 1014,4 hPa 0,0 l/m 2,9 km/h (1 Bft) NO 45 0 min -12,7 C -10,5 C 3,1 km/h (1 Bft)
19.03.2018 03:35 -7,8 C 1,3 C -8,1 C -8,7 C -10,5 C 0,0 C 67 % 74 % 1014,6 hPa 0,0 l/m 2,9 km/h (1 Bft) NO 45 0 min -12,8 C -10,5 C 3,7 km/h (1 Bft)
19.03.2018 03:40 -7,7 C 1,3 C -8,1 C -8,7 C -10,7 C 0,0 C 67 % 74 % 1014,6 hPa 0,0 l/m 3,1 km/h (1 Bft) NO 45 0 min -12,7 C -10,7 C 3,2 km/h (1 Bft)
19.03.2018 03:45 -7,7 C 1,3 C -8,2 C -8,7 C -10,8 C 0,0 C 67 % 74 % 1014,6 hPa 0,0 l/m 3,2 km/h (1 Bft) O-NO 67 0 min -12,7 C -10,8 C 3,2 km/h (1 Bft)
19.03.2018 03:50 -7,9 C 1,3 C -8,3 C -8,8 C -10,6 C 0,0 C 67 % 74 % 1014,6 hPa 0,0 l/m 2,9 km/h (1 Bft) NO 45 0 min -12,9 C -10,6 C 2,7 km/h (1 Bft)
19.03.2018 03:55 -8,0 C 1,3 C -8,4 C -8,6 C -9,9 C 0,0 C 68 % 74 % 1014,8 hPa 0,0 l/m 2,1 km/h (1 Bft) O-NO 67 0 min -12,8 C -9,9 C 3,1 km/h (1 Bft)
19.03.2018 04:00 -8,0 C 1,3 C -8,4 C -8,7 C -10,0 C 0,0 C 68 % 74 % 1014,8 hPa 0,0 l/m 2,1 km/h (1 Bft) O-NO 67 0 min -12,8 C -10,0 C 2,6 km/h (1 Bft)
19.03.2018 04:05 -8,1 C 1,3 C -8,5 C -8,6 C -9,7 C 0,0 C 68 % 74 % 1014,8 hPa 0,0 l/m 1,4 km/h (1 Bft) NO 45 0 min -12,9 C -9,7 C 1,6 km/h (1 Bft)
19.03.2018 04:10 -8,1 C 1,3 C -8,5 C -8,7 C -9,9 C 0,0 C 68 % 74 % 1014,8 hPa 0,0 l/m 1,1 km/h (1 Bft) O-NO 67 0 min -12,9 C -9,9 C 2,6 km/h (1 Bft)
19.03.2018 04:15 -8,1 C 1,3 C -8,5 C -8,7 C -10,0 C 0,0 C 68 % 74 % 1014,8 hPa 0,0 l/m 1,0 km/h (0 Bft) N-NO 22 0 min -12,9 C -10,0 C 1,6 km/h (1 Bft)
19.03.2018 04:20 -8,1 C 1,3 C -8,5 C -8,7 C -10,0 C 0,0 C 68 % 75 % 1014,8 hPa 0,0 l/m 1,0 km/h (0 Bft) O-NO 67 0 min -12,9 C -10,0 C 1,8 km/h (1 Bft)
19.03.2018 04:25 -8,3 C 1,3 C -8,5 C -8,9 C -10,2 C 0,0 C 68 % 75 % 1014,8 hPa 0,0 l/m 1,9 km/h (1 Bft) NO 45 0 min -13,1 C -10,2 C 3,2 km/h (1 Bft)
19.03.2018 04:30 -8,3 C 1,3 C -8,7 C -9,1 C -10,6 C 0,0 C 68 % 74 % 1014,8 hPa 0,0 l/m 2,3 km/h (1 Bft) O-NO 67 0 min -13,1 C -10,6 C 0,0 km/h (0 Bft)
19.03.2018 04:35 -8,5 C 1,3 C -8,9 C -9,0 C -10,0 C 0,0 C 68 % 74 % 1014,1 hPa 0,0 l/m 1,6 km/h (1 Bft) NO 45 0 min -13,3 C -10,0 C 1,8 km/h (1 Bft)
19.03.2018 04:40 -8,5 C 1,3 C -8,9 C -9,1 C -10,2 C 0,0 C 68 % 75 % 1014,1 hPa 0,0 l/m 1,4 km/h (1 Bft) NO 45 0 min -13,3 C -10,2 C 2,1 km/h (1 Bft)
19.03.2018 04:45 -8,5 C 1,3 C -8,9 C -9,3 C -10,8 C 0,0 C 68 % 75 % 1014,1 hPa 0,0 l/m 2,3 km/h (1 Bft) NO 45 0 min -13,3 C -10,8 C 2,9 km/h (1 Bft)
19.03.2018 04:50 -8,5 C 1,3 C -8,9 C -9,4 C -11,2 C 0,0 C 68 % 75 % 1014,1 hPa 0,0 l/m 2,7 km/h (1 Bft) NO 45 0 min -13,3 C -11,2 C 3,7 km/h (1 Bft)
19.03.2018 04:55 -8,5 C 1,3 C -8,9 C -9,3 C -11,0 C 0,0 C 68 % 75 % 1014,6 hPa 0,0 l/m 2,6 km/h (1 Bft) NO 45 0 min -13,3 C -11,0 C 2,6 km/h (1 Bft)
19.03.2018 05:00 -8,5 C 1,3 C -8,9 C -9,3 C -10,8 C 0,0 C 68 % 75 % 1014,6 hPa 0,0 l/m 2,3 km/h (1 Bft) O-NO 67 0 min -13,3 C -10,8 C 2,1 km/h (1 Bft)
19.03.2018 05:05 -8,7 C 1,3 C -9,0 C -9,2 C -10,3 C 0,0 C 68 % 75 % 1014,6 hPa 0,0 l/m 1,6 km/h (1 Bft) O-NO 67 0 min -13,5 C -10,3 C 0,0 km/h (0 Bft)
19.03.2018 05:10 -8,7 C 1,3 C -8,9 C -9,3 C -10,4 C 0,0 C 68 % 75 % 1014,6 hPa 0,0 l/m 1,4 km/h (1 Bft) N-NO 22 0 min -13,5 C -10,4 C 2,1 km/h (1 Bft)
19.03.2018 05:15 -8,7 C 1,3 C -8,9 C -9,3 C -10,4 C 0,0 C 69 % 75 % 1014,6 hPa 0,0 l/m 1,4 km/h (1 Bft) NO 45 0 min -13,3 C -10,4 C 0,0 km/h (0 Bft)
19.03.2018 05:20 -8,8 C 1,3 C -9,1 C -9,4 C -10,5 C 0,0 C 69 % 75 % 1014,6 hPa 0,0 l/m 1,1 km/h (1 Bft) NO 45 0 min -13,4 C -10,5 C 1,6 km/h (1 Bft)
19.03.2018 05:25 -8,9 C 1,3 C -9,1 C -9,5 C -10,6 C 0,0 C 69 % 75 % 1014,6 hPa 0,0 l/m 0,6 km/h (0 Bft) NO 45 0 min -13,5 C -10,6 C 0,0 km/h (0 Bft)
19.03.2018 05:30 -8,9 C 1,3 C -9,2 C -9,5 C -10,8 C 0,0 C 69 % 75 % 1014,6 hPa 0,0 l/m 0,6 km/h (0 Bft) NO 45 0 min -13,5 C -10,8 C 2,3 km/h (1 Bft)
19.03.2018 05:35 -8,9 C 1,3 C -9,1 C -9,5 C -10,8 C 0,0 C 69 % 75 % 1014,5 hPa 0,0 l/m 1,0 km/h (0 Bft) NO 45 0 min -13,5 C -10,8 C 0,0 km/h (0 Bft)
19.03.2018 05:40 -8,9 C 1,3 C -9,3 C -9,6 C -10,9 C 0,0 C 69 % 75 % 1014,5 hPa 0,0 l/m 0,6 km/h (0 Bft) NO 45 0 min -13,5 C -10,9 C 0,0 km/h (0 Bft)
19.03.2018 05:45 -8,9 C 1,3 C -9,3 C -9,6 C -11,0 C 0,0 C 69 % 76 % 1014,5 hPa 0,0 l/m 0,0 km/h (0 Bft) NO 45 0 min -13,5 C -11,0 C 0,0 km/h (0 Bft)
19.03.2018 05:50 -9,1 C 1,3 C -9,3 C -9,8 C -11,1 C 0,0 C 69 % 76 % 1014,5 hPa 0,0 l/m 0,0 km/h (0 Bft) O-NO 67 0 min -13,7 C -11,1 C 0,0 km/h (0 Bft)
19.03.2018 05:55 -9,3 C 1,3 C -9,5 C -10,0 C -11,3 C 0,0 C 69 % 76 % 1014,5 hPa 0,0 l/m 0,0 km/h (0 Bft) NO 45 0 min -13,9 C -11,3 C 0,0 km/h (0 Bft)
19.03.2018 06:00 -9,3 C 1,3 C -9,5 C -10,0 C -11,4 C 0,0 C 70 % 76 % 1014,5 hPa 0,0 l/m 0,0 km/h (0 Bft) N-NO 22 0 min -13,7 C -11,4 C 0,0 km/h (0 Bft)
19.03.2018 06:05 -9,5 C 1,3 C -9,9 C -10,2 C -11,7 C 0,0 C 70 % 76 % 1014,5 hPa 0,0 l/m 0,0 km/h (0 Bft) N-NO 22 0 min -13,9 C -11,7 C 0,0 km/h (0 Bft)
19.03.2018 06:10 -9,6 C 1,3 C -10,0 C -10,3 C -11,8 C 0,0 C 70 % 77 % 1014,5 hPa 0,0 l/m 0,0 km/h (0 Bft) N-NO 22 0 min -14,0 C -11,8 C 0,0 km/h (0 Bft)
19.03.2018 06:15 -9,7 C 1,3 C -10,1 C -10,5 C -12,0 C 0,0 C 70 % 77 % 1014,5 hPa 0,0 l/m 0,0 km/h (0 Bft) N-NO 22 0 min -14,1 C -12,0 C 0,0 km/h (0 Bft)
19.03.2018 06:20 -9,7 C 1,3 C -10,1 C -10,5 C -12,0 C 0,0 C 70 % 77 % 1014,5 hPa 0,0 l/m 0,0 km/h (0 Bft) O-NO 67 0 min -14,1 C -12,0 C 0,0 km/h (0 Bft)
19.03.2018 06:25 -9,7 C 1,3 C -10,1 C -10,4 C -11,8 C 0,0 C 71 % 77 % 1014,5 hPa 0,0 l/m 0,0 km/h (0 Bft) N-NO 22 0 min -13,9 C -11,8 C 0,0 km/h (0 Bft)
19.03.2018 06:30 -9,7 C 1,3 C -10,3 C -10,4 C -11,7 C 0,0 C 71 % 78 % 1014,5 hPa 0,0 l/m 0,0 km/h (0 Bft) N-NO 22 0 min -13,9 C -11,7 C 0,0 km/h (0 Bft)
19.03.2018 06:35 -9,9 C 1,3 C -10,3 C -10,5 C -11,7 C 0,0 C 71 % 78 % 1015,2 hPa 0,0 l/m 0,0 km/h (0 Bft) N-NO 22 0 min -14,1 C -11,7 C 0,0 km/h (0 Bft)
19.03.2018 06:40 -9,9 C 1,3 C -10,1 C -10,3 C -11,2 C 0,0 C 72 % 78 % 1015,2 hPa 0,0 l/m 0,0 km/h (0 Bft) O-NO 67 0 min -14,0 C -11,2 C 0,0 km/h (0 Bft)
19.03.2018 06:45 -9,7 C 1,3 C -10,1 C -9,8 C -10,0 C 0,0 C 72 % 78 % 1015,2 hPa 0,0 l/m 0,0 km/h (0 Bft) O-NO 67 0 min -13,8 C -10,0 C 0,0 km/h (0 Bft)
19.03.2018 06:50 -9,7 C 1,3 C -10,0 C -8,8 C -8,8 C 0,9 C 72 % 79 % 1015,2 hPa 0,0 l/m 0,0 km/h (0 Bft) NO 45 5 min -13,8 C -8,8 C 0,0 km/h (0 Bft)
19.03.2018 06:55 -9,3 C 1,3 C -9,9 C -6,9 C -6,9 C 2,4 C 73 % 79 % 1015,2 hPa 0,0 l/m 0,0 km/h (0 Bft) NO 45 5 min -13,2 C -6,9 C 0,0 km/h (0 Bft)
19.03.2018 07:00 -8,8 C 1,3 C -9,7 C -5,9 C -5,9 C 2,9 C 74 % 79 % 1015,2 hPa 0,0 l/m 0,0 km/h (0 Bft) N-NO 22 5 min -12,6 C -5,9 C 0,0 km/h (0 Bft)
19.03.2018 07:05 -8,1 C 1,3 C -9,6 C -4,1 C -4,1 C 4,0 C 75 % 79 % 1015,2 hPa 0,0 l/m 0,0 km/h (0 Bft) N 360 5 min -11,7 C -4,1 C 0,0 km/h (0 Bft)
19.03.2018 07:10 -7,8 C 1,3 C -9,3 C -3,1 C -3,1 C 4,7 C 75 % 79 % 1015,2 hPa 0,0 l/m 0,0 km/h (0 Bft) N-NO 22 5 min -11,4 C -3,1 C 0,0 km/h (0 Bft)
19.03.2018 07:15 -6,9 C 1,3 C -9,2 C -2,2 C -2,2 C 4,7 C 74 % 79 % 1015,2 hPa 0,0 l/m 0,0 km/h (0 Bft) O-NO 67 5 min -10,7 C -2,2 C 0,0 km/h (0 Bft)
19.03.2018 07:20 -6,7 C 1,3 C -8,9 C -2,2 C -2,2 C 4,5 C 73 % 78 % 1015,2 hPa 0,0 l/m 0,2 km/h (0 Bft) N-NW 337 5 min -10,7 C -2,2 C 0,0 km/h (0 Bft)
19.03.2018 07:25 -6,5 C 1,3 C -8,5 C -1,5 C -1,5 C 5,0 C 71 % 78 % 1015,2 hPa 0,0 l/m 0,3 km/h (0 Bft) O-SO 112 5 min -10,9 C -1,5 C 0,0 km/h (0 Bft)
19.03.2018 07:30 -6,5 C 1,3 C -8,4 C -0,8 C -0,8 C 5,7 C 70 % 77 % 1015,2 hPa 0,0 l/m 0,2 km/h (0 Bft) N-NW 337 5 min -11,0 C -0,8 C 0,0 km/h (0 Bft)
19.03.2018 07:35 -6,3 C 1,3 C -8,1 C -0,9 C -0,9 C 5,4 C 69 % 77 % 1014,9 hPa 0,0 l/m 0,3 km/h (0 Bft) O-NO 67 5 min -11,0 C -0,9 C 1,8 km/h (1 Bft)
19.03.2018 07:40 -6,1 C 1,2 C -8,1 C -1,4 C -1,4 C 4,7 C 68 % 77 % 1014,9 hPa 0,0 l/m 0,3 km/h (0 Bft) O-NO 67 5 min -11,0 C -1,4 C 0,0 km/h (0 Bft)
19.03.2018 07:45 -6,1 C 1,2 C -7,7 C -1,9 C -1,9 C 4,2 C 67 % 76 % 1014,9 hPa 0,0 l/m 1,1 km/h (1 Bft) NO 45 5 min -11,2 C -1,9 C 2,6 km/h (1 Bft)
19.03.2018 07:50 -6,1 C 1,2 C -7,7 C -2,0 C -2,0 C 4,1 C 66 % 75 % 1014,9 hPa 0,0 l/m 1,4 km/h (1 Bft) NO 45 5 min -11,4 C -2,0 C 1,6 km/h (1 Bft)
19.03.2018 07:55 -6,3 C 1,2 C -7,6 C -3,0 C -3,0 C 3,3 C 65 % 75 % 1015,2 hPa 0,0 l/m 2,9 km/h (1 Bft) O-NO 67 5 min -11,8 C -3,0 C 8,2 km/h (2 Bft)
19.03.2018 08:00 -6,5 C 1,2 C -7,3 C -5,1 C -5,1 C 1,4 C 64 % 73 % 1015,2 hPa 0,0 l/m 4,2 km/h (1 Bft) NO 45 0 min -12,2 C -5,1 C 6,4 km/h (2 Bft)
19.03.2018 08:05 -6,7 C 1,2 C -7,2 C -5,3 C -5,3 C 1,4 C 64 % 73 % 1015,2 hPa 0,0 l/m 5,3 km/h (1 Bft) NO 45 0 min -12,3 C -7,8 C 6,4 km/h (2 Bft)
19.03.2018 08:10 -6,8 C 1,2 C -6,9 C -5,6 C -5,6 C 1,2 C 63 % 71 % 1015,2 hPa 0,0 l/m 5,3 km/h (1 Bft) O-NO 67 0 min -12,6 C -8,1 C 7,7 km/h (2 Bft)
19.03.2018 08:15 -6,8 C 1,2 C -6,8 C -6,3 C -6,3 C 0,5 C 64 % 71 % 1015,6 hPa 0,0 l/m 6,0 km/h (2 Bft) O-NO 67 0 min -12,4 C -9,3 C 6,8 km/h (2 Bft)
19.03.2018 08:20 -6,7 C 1,2 C -6,5 C -5,9 C -5,9 C 0,8 C 64 % 71 % 1015,6 hPa 0,0 l/m 5,6 km/h (1 Bft) O-NO 67 0 min -12,3 C -8,6 C 7,1 km/h (2 Bft)
19.03.2018 08:25 -6,5 C 1,2 C -6,3 C -5,3 C -5,3 C 1,2 C 64 % 70 % 1015,6 hPa 0,0 l/m 5,3 km/h (1 Bft) O-NO 67 0 min -12,2 C -7,8 C 6,3 km/h (2 Bft)
19.03.2018 08:30 -6,5 C 1,2 C -6,1 C -4,3 C -4,3 C 2,2 C 64 % 69 % 1015,6 hPa 0,0 l/m 5,3 km/h (1 Bft) NO 45 0 min -12,2 C -6,6 C 4,8 km/h (1 Bft)
19.03.2018 08:35 -6,5 C 1,2 C -6,1 C -3,4 C -3,4 C 3,1 C 63 % 68 % 1015,1 hPa 0,0 l/m 5,8 km/h (2 Bft) S-SO 157 0 min -12,3 C -5,8 C 6,3 km/h (2 Bft)
19.03.2018 08:40 -6,5 C 1,2 C -5,9 C -3,1 C -3,1 C 3,4 C 63 % 68 % 1015,1 hPa 0,0 l/m 5,5 km/h (1 Bft) NO 45 5 min -12,3 C -5,4 C 6,6 km/h (2 Bft)
19.03.2018 08:45 -6,3 C 1,2 C -5,3 C -2,7 C -2,7 C 3,6 C 64 % 69 % 1015,1 hPa 0,0 l/m 5,0 km/h (1 Bft) O-NO 67 5 min -12,0 C -4,7 C 6,9 km/h (2 Bft)
19.03.2018 08:50 -6,3 C 1,2 C -5,2 C -3,6 C -3,6 C 2,7 C 63 % 67 % 1015,1 hPa 0,0 l/m 5,3 km/h (1 Bft) NO 45 0 min -12,2 C -5,8 C 5,8 km/h (2 Bft)
19.03.2018 08:55 -6,1 C 1,2 C -4,9 C -5,3 C -5,3 C 0,8 C 63 % 67 % 1015,3 hPa 0,0 l/m 6,0 km/h (2 Bft) O-NO 67 0 min -12,0 C -8,1 C 5,6 km/h (1 Bft)
19.03.2018 09:00 -6,1 C 1,2 C -4,9 C -4,8 C -4,8 C 1,3 C 63 % 66 % 1015,3 hPa 0,0 l/m 6,4 km/h (2 Bft) NO 45 0 min -12,0 C -7,7 C 8,4 km/h (2 Bft)
19.03.2018 09:05 -6,0 C 1,2 C -4,7 C -4,4 C -4,4 C 1,6 C 64 % 66 % 1015,3 hPa 0,0 l/m 6,4 km/h (2 Bft) O-NO 67 0 min -11,7 C -7,3 C 8,5 km/h (2 Bft)
19.03.2018 09:10 -5,9 C 1,2 C -4,8 C -4,7 C -4,7 C 1,2 C 63 % 65 % 1015,3 hPa 0,0 l/m 7,2 km/h (2 Bft) O-NO 67 0 min -11,8 C -7,9 C 7,4 km/h (2 Bft)
19.03.2018 09:15 -5,9 C 1,2 C -4,7 C -5,1 C -5,1 C 0,8 C 63 % 65 % 1015,2 hPa 0,0 l/m 7,4 km/h (2 Bft) O-NO 67 0 min -11,8 C -8,5 C 6,1 km/h (2 Bft)
19.03.2018 09:20 -5,7 C 1,2 C -4,2 C -4,5 C -4,5 C 1,2 C 63 % 66 % 1015,2 hPa 0,0 l/m 7,1 km/h (2 Bft) NO 45 0 min -11,6 C -7,7 C 14,3 km/h (3 Bft)
19.03.2018 09:25 -5,6 C 1,2 C -3,3 C -4,2 C -4,2 C 1,4 C 63 % 64 % 1015,2 hPa 0,0 l/m 6,9 km/h (2 Bft) N-NO 22 0 min -11,5 C -7,2 C 5,1 km/h (1 Bft)
19.03.2018 09:30 -5,5 C 1,2 C -2,8 C -3,8 C -5,2 C 1,7 C 62 % 62 % 1015,2 hPa 0,0 l/m 7,9 km/h (2 Bft) O-NO 67 0 min -11,6 C -8,8 C 10,1 km/h (2 Bft)
19.03.2018 09:35 -5,6 C 1,2 C -2,1 C -4,8 C -6,2 C 0,8 C 62 % 60 % 1015,2 hPa 0,0 l/m 8,2 km/h (2 Bft) NO 45 0 min -11,7 C -10,1 C 8,7 km/h (2 Bft)
19.03.2018 09:40 -5,3 C 1,2 C -2,1 C -5,0 C -5,9 C 0,3 C 62 % 60 % 1015,2 hPa 0,0 l/m 7,7 km/h (2 Bft) NO 45 0 min -11,4 C -9,6 C 14,5 km/h (3 Bft)
19.03.2018 09:45 -5,3 C 1,2 C -2,1 C -4,2 C -4,9 C 1,1 C 62 % 60 % 1015,2 hPa 0,0 l/m 8,4 km/h (2 Bft) O-NO 67 0 min -11,4 C -8,6 C 10,6 km/h (2 Bft)
19.03.2018 09:50 -5,3 C 1,2 C -2,0 C -4,2 C -5,4 C 1,1 C 63 % 59 % 1015,2 hPa 0,0 l/m 8,0 km/h (2 Bft) O-NO 67 0 min -11,2 C -9,1 C 15,1 km/h (3 Bft)
19.03.2018 09:55 -5,3 C 1,2 C -2,3 C -4,8 C -6,1 C 0,5 C 62 % 58 % 1014,9 hPa 0,0 l/m 8,2 km/h (2 Bft) NO 45 0 min -11,4 C -10,0 C 10,1 km/h (2 Bft)
19.03.2018 10:00 -5,3 C 1,2 C -2,9 C -5,3 C -6,7 C 0,0 C 62 % 59 % 1014,9 hPa 0,0 l/m 8,5 km/h (2 Bft) O-NO 67 0 min -11,4 C -10,8 C 16,3 km/h (3 Bft)
19.03.2018 10:05 -5,1 C 1,2 C -3,7 C -5,1 C -6,1 C 0,0 C 62 % 61 % 1014,9 hPa 0,0 l/m 8,4 km/h (2 Bft) O-NO 67 0 min -11,2 C -10,1 C 6,9 km/h (2 Bft)
19.03.2018 10:10 -5,1 C 1,2 C -3,7 C -5,1 C -6,2 C 0,0 C 62 % 63 % 1014,9 hPa 0,0 l/m 8,0 km/h (2 Bft) NO 45 0 min -11,2 C -10,0 C 10,6 km/h (2 Bft)
19.03.2018 10:15 -4,9 C 1,2 C -4,0 C -4,9 C -6,1 C 0,0 C 62 % 63 % 1015,2 hPa 0,0 l/m 8,4 km/h (2 Bft) O-NO 67 0 min -11,0 C -10,1 C 9,2 km/h (2 Bft)
19.03.2018 10:20 -5,0 C 1,2 C -3,9 C -5,0 C -6,4 C 0,0 C 62 % 63 % 1015,2 hPa 0,0 l/m 9,0 km/h (2 Bft) NO 45 0 min -11,1 C -10,6 C 9,3 km/h (2 Bft)
19.03.2018 10:25 -5,0 C 1,2 C -4,1 C -5,1 C -6,5 C 0,0 C 62 % 65 % 1015,2 hPa 0,0 l/m 8,4 km/h (2 Bft) NO 45 0 min -11,1 C -10,5 C 13,0 km/h (3 Bft)
19.03.2018 10:30 -4,9 C 1,2 C -4,1 C -5,1 C -6,9 C 0,0 C 62 % 64 % 1015,2 hPa 0,0 l/m 8,7 km/h (2 Bft) O-NO 67 0 min -11,0 C -11,1 C 16,4 km/h (3 Bft)
19.03.2018 10:35 -4,8 C 1,2 C -4,1 C -5,3 C -6,4 C 0,0 C 62 % 65 % 1015,1 hPa 0,0 l/m 7,6 km/h (2 Bft) O-NO 67 0 min -10,9 C -10,1 C 7,7 km/h (2 Bft)
19.03.2018 10:40 -4,5 C 1,2 C -4,1 C -5,1 C -6,3 C 0,0 C 63 % 65 % 1015,1 hPa 0,0 l/m 7,6 km/h (2 Bft) O 90 0 min -10,5 C -10,0 C 16,4 km/h (3 Bft)
19.03.2018 10:45 -4,5 C 1,2 C -4,0 C -4,7 C -5,2 C 0,0 C 63 % 66 % 1015,1 hPa 0,0 l/m 7,4 km/h (2 Bft) NO 45 0 min -10,5 C -8,6 C 10,0 km/h (2 Bft)
19.03.2018 10:50 -4,3 C 1,2 C -3,9 C -4,3 C -4,4 C 0,0 C 63 % 66 % 1015,1 hPa 0,0 l/m 6,9 km/h (2 Bft) O-NO 67 0 min -10,3 C -7,5 C 6,8 km/h (2 Bft)
19.03.2018 10:55 -4,3 C 1,2 C -3,9 C -4,3 C -4,4 C 0,0 C 62 % 65 % 1015,2 hPa 0,0 l/m 6,9 km/h (2 Bft) O-NO 67 0 min -10,5 C -7,5 C 6,9 km/h (2 Bft)
19.03.2018 11:00 -4,1 C 1,2 C -3,7 C -4,3 C -4,6 C 0,0 C 62 % 66 % 1015,2 hPa 0,0 l/m 7,2 km/h (2 Bft) O-NO 67 0 min -10,3 C -7,8 C 8,4 km/h (2 Bft)
19.03.2018 11:05 -4,0 C 1,2 C -3,7 C -4,4 C -5,2 C 0,0 C 63 % 66 % 1015,2 hPa 0,0 l/m 7,4 km/h (2 Bft) O-NO 67 0 min -10,0 C -8,6 C 9,5 km/h (2 Bft)
19.03.2018 11:10 -4,0 C 1,2 C -3,6 C -4,4 C -5,2 C 0,0 C 63 % 67 % 1015,2 hPa 0,0 l/m 7,1 km/h (2 Bft) O-NO 67 0 min -10,0 C -8,5 C 8,0 km/h (2 Bft)
19.03.2018 11:15 -3,7 C 1,2 C -3,5 C -4,0 C -4,7 C 0,0 C 63 % 66 % 1015,1 hPa 0,0 l/m 6,3 km/h (2 Bft) NO 45 0 min -9,7 C -7,6 C 6,4 km/h (2 Bft)
19.03.2018 11:20 -3,5 C 1,2 C -1,5 C -3,5 C -3,5 C 0,0 C 62 % 66 % 1015,1 hPa 0,0 l/m 6,1 km/h (2 Bft) NO 45 0 min -9,7 C -6,1 C 10,8 km/h (2 Bft)
19.03.2018 11:25 -3,6 C 1,2 C -2,1 C -3,8 C -4,1 C 0,0 C 62 % 61 % 1015,1 hPa 0,0 l/m 7,2 km/h (2 Bft) O-NO 67 0 min -9,8 C -7,3 C 17,1 km/h (3 Bft)
19.03.2018 11:30 -3,6 C 1,2 C -1,9 C -2,9 C -3,7 C 0,7 C 61 % 63 % 1015,1 hPa 0,0 l/m 8,2 km/h (2 Bft) O-NO 67 0 min -10,0 C -7,2 C 12,9 km/h (3 Bft)
19.03.2018 11:35 -3,6 C 1,2 C 0,2 C -2,5 C -3,6 C 1,1 C 61 % 59 % 1015,1 hPa 0,0 l/m 9,8 km/h (2 Bft) O-NO 67 0 min -10,0 C -7,6 C 7,4 km/h (2 Bft)
19.03.2018 11:40 -3,5 C 1,2 C 1,1 C -2,3 C -3,3 C 1,2 C 61 % 57 % 1015,1 hPa 0,0 l/m 10,3 km/h (2 Bft) NO 45 0 min -9,9 C -7,3 C 19,6 km/h (3 Bft)
19.03.2018 11:45 -3,3 C 1,2 C 1,3 C -2,5 C -3,9 C 0,8 C 61 % 55 % 1015,1 hPa 0,0 l/m 11,1 km/h (2 Bft) O-NO 67 0 min -9,7 C -8,3 C 8,4 km/h (2 Bft)
19.03.2018 11:50 -3,3 C 1,2 C 1,8 C -2,3 C -3,2 C 1,0 C 62 % 55 % 1015,1 hPa 0,0 l/m 10,6 km/h (2 Bft) O-NO 67 0 min -9,5 C -7,3 C 20,9 km/h (4 Bft)
19.03.2018 11:55 -3,2 C 1,2 C 1,4 C -1,4 C -2,1 C 1,8 C 61 % 54 % 1015,1 hPa 0,0 l/m 10,0 km/h (2 Bft) N-NO 22 0 min -9,6 C -5,8 C 9,7 km/h (2 Bft)
19.03.2018 12:00 -3,1 C 1,2 C 1,9 C -1,1 C -2,3 C 2,0 C 61 % 53 % 1015,1 hPa 0,0 l/m 11,4 km/h (2 Bft) O-NO 67 0 min -9,5 C -6,4 C 19,0 km/h (3 Bft)
19.03.2018 12:05 -3,1 C 1,2 C 1,9 C -1,1 C -2,2 C 2,0 C 61 % 53 % 1015,1 hPa 0,0 l/m 11,4 km/h (2 Bft) N-NO 22 0 min -9,5 C -6,3 C 11,9 km/h (2 Bft)
19.03.2018 12:10 -2,9 C 1,2 C 1,6 C -0,9 C -1,8 C 2,0 C 61 % 53 % 1015,1 hPa 0,0 l/m 10,6 km/h (2 Bft) O-NO 67 0 min -9,3 C -5,6 C 7,7 km/h (2 Bft)
19.03.2018 12:15 -2,9 C 1,2 C 0,4 C -0,4 C -1,1 C 2,5 C 61 % 56 % 1014,9 hPa 0,0 l/m 9,0 km/h (2 Bft) O-NO 67 0 min -9,3 C -4,3 C 8,4 km/h (2 Bft)
19.03.2018 12:20 -2,7 C 1,2 C -0,1 C 0,0 C -0,8 C 2,7 C 62 % 57 % 1014,9 hPa 0,0 l/m 8,5 km/h (2 Bft) NO 45 0 min -8,9 C -3,8 C 12,9 km/h (3 Bft)
19.03.2018 12:25 -2,6 C 1,2 C -0,4 C 0,2 C -0,6 C 2,8 C 61 % 59 % 1014,9 hPa 0,0 l/m 8,5 km/h (2 Bft) NO 45 0 min -9,1 C -3,6 C 9,8 km/h (2 Bft)
19.03.2018 12:30 -2,5 C 1,2 C -0,1 C 0,2 C -0,8 C 2,7 C 61 % 59 % 1014,9 hPa 0,0 l/m 9,7 km/h (2 Bft) NO 45 0 min -9,0 C -4,2 C 10,8 km/h (2 Bft)
19.03.2018 12:35 -2,3 C 1,2 C 0,1 C 0,7 C 0,2 C 3,0 C 62 % 58 % 1014,9 hPa 0,0 l/m 8,5 km/h (2 Bft) O-NO 67 0 min -8,6 C -2,7 C 4,7 km/h (1 Bft)
19.03.2018 12:40 -2,1 C 1,2 C 0,7 C 1,3 C 1,3 C 3,4 C 61 % 58 % 1014,9 hPa 0,0 l/m 7,2 km/h (2 Bft) O-NO 67 5 min -8,6 C -1,0 C 9,0 km/h (2 Bft)
19.03.2018 12:45 -2,1 C 1,2 C 0,5 C 1,2 C 1,2 C 3,3 C 61 % 57 % 1014,9 hPa 0,0 l/m 7,1 km/h (2 Bft) O-NO 67 5 min -8,6 C -1,0 C 10,1 km/h (2 Bft)
19.03.2018 12:50 -2,1 C 1,2 C 0,1 C 0,9 C 0,9 C 3,0 C 61 % 58 % 1014,9 hPa 0,0 l/m 7,4 km/h (2 Bft) O-NO 67 0 min -8,6 C -1,5 C 11,3 km/h (2 Bft)
19.03.2018 12:55 -1,9 C 1,2 C 0,4 C 0,9 C 0,9 C 2,8 C 61 % 59 % 1014,6 hPa 0,0 l/m 7,7 km/h (2 Bft) NO 45 0 min -8,4 C -1,6 C 11,4 km/h (2 Bft)
19.03.2018 13:00 -2,0 C 1,2 C 0,5 C 1,3 C 1,3 C 3,3 C 61 % 59 % 1014,6 hPa 0,0 l/m 7,2 km/h (2 Bft) NO 45 5 min -8,5 C -1,0 C 5,8 km/h (2 Bft)
19.03.2018 13:05 -1,7 C 1,2 C 1,3 C 2,7 C 2,7 C 4,4 C 61 % 59 % 1014,6 hPa 0,0 l/m 6,0 km/h (2 Bft) O-NO 67 5 min -8,2 C 1,1 C 8,4 km/h (2 Bft)
19.03.2018 13:10 -1,6 C 1,2 C 1,5 C 3,2 C 3,2 C 4,8 C 61 % 56 % 1014,6 hPa 0,0 l/m 6,0 km/h (2 Bft) O-NO 67 5 min -8,1 C 1,7 C 7,6 km/h (2 Bft)
19.03.2018 13:15 -1,5 C 1,2 C 1,6 C 3,3 C 3,3 C 4,8 C 60 % 57 % 1014,6 hPa 0,0 l/m 6,3 km/h (2 Bft) NO 45 5 min -8,2 C 1,7 C 10,0 km/h (2 Bft)
19.03.2018 13:20 -1,5 C 1,2 C 1,1 C 2,7 C 2,7 C 4,2 C 60 % 56 % 1014,6 hPa 0,0 l/m 6,6 km/h (2 Bft) O-NO 67 5 min -8,2 C 0,9 C 10,6 km/h (2 Bft)
19.03.2018 13:25 -1,5 C 1,2 C 0,4 C 2,0 C 2,0 C 3,5 C 60 % 57 % 1014,6 hPa 0,0 l/m 7,2 km/h (2 Bft) NO 45 5 min -8,2 C -0,1 C 5,8 km/h (2 Bft)
19.03.2018 13:30 -1,7 C 1,2 C 0,0 C 2,4 C 1,5 C 4,1 C 60 % 58 % 1014,6 hPa 0,0 l/m 7,9 km/h (2 Bft) O-NO 67 5 min -8,4 C -0,9 C 6,4 km/h (2 Bft)
19.03.2018 13:35 -1,7 C 1,2 C -0,3 C 0,9 C 0,9 C 2,6 C 60 % 59 % 1014,6 hPa 0,0 l/m 7,6 km/h (2 Bft) O-NO 67 0 min -8,4 C -1,6 C 9,8 km/h (2 Bft)
19.03.2018 13:40 -1,5 C 1,2 C -0,5 C 1,1 C 1,1 C 2,6 C 60 % 60 % 1014,6 hPa 0,0 l/m 7,1 km/h (2 Bft) N-NO 22 0 min -8,2 C -1,2 C 8,0 km/h (2 Bft)
19.03.2018 13:45 -1,6 C 1,2 C -0,7 C 0,7 C 0,7 C 2,3 C 60 % 60 % 1014,6 hPa 0,0 l/m 6,8 km/h (2 Bft) NO 45 0 min -8,3 C -1,5 C 9,5 km/h (2 Bft)
19.03.2018 13:50 -1,3 C 1,2 C -0,5 C 1,4 C 1,4 C 2,7 C 60 % 61 % 1014,6 hPa 0,0 l/m 6,3 km/h (2 Bft) O-NO 67 0 min -8,0 C -0,5 C 4,7 km/h (1 Bft)
19.03.2018 13:55 -1,1 C 1,2 C -0,5 C 2,7 C 2,7 C 3,8 C 60 % 61 % 1014,6 hPa 0,0 l/m 6,1 km/h (2 Bft) O-SO 112 5 min -7,9 C 1,0 C 6,0 km/h (2 Bft)
19.03.2018 14:00 -1,2 C 1,2 C -0,5 C 2,6 C 2,6 C 3,8 C 59 % 61 % 1014,6 hPa 0,0 l/m 6,3 km/h (2 Bft) NO 45 5 min -8,2 C 0,9 C 7,4 km/h (2 Bft)
19.03.2018 14:05 -1,3 C 1,2 C -0,7 C 2,1 C 2,1 C 3,4 C 59 % 61 % 1014,6 hPa 0,0 l/m 6,8 km/h (2 Bft) O 90 5 min -8,3 C 0,1 C 10,8 km/h (2 Bft)
19.03.2018 14:10 -1,1 C 1,2 C -0,7 C 1,9 C 1,9 C 3,0 C 58 % 61 % 1014,6 hPa 0,0 l/m 7,1 km/h (2 Bft) O-NO 67 0 min -8,3 C -0,2 C 6,8 km/h (2 Bft)
19.03.2018 14:15 -0,9 C 1,3 C -0,5 C 2,3 C 2,3 C 3,2 C 59 % 61 % 1014,1 hPa 0,0 l/m 7,1 km/h (2 Bft) O-NO 67 0 min -7,9 C 0,2 C 7,1 km/h (2 Bft)
19.03.2018 14:20 -0,9 C 1,3 C -0,5 C 2,2 C 2,2 C 3,1 C 58 % 61 % 1014,1 hPa 0,0 l/m 7,2 km/h (2 Bft) O-NO 67 0 min -8,1 C 0,1 C 8,5 km/h (2 Bft)
19.03.2018 14:25 -1,1 C 1,2 C -0,7 C 2,5 C 1,6 C 3,6 C 57 % 61 % 1014,1 hPa 0,0 l/m 7,7 km/h (2 Bft) NO 45 5 min -8,5 C -0,8 C 8,4 km/h (2 Bft)
19.03.2018 14:30 -1,2 C 1,2 C -0,7 C 2,2 C 1,5 C 3,4 C 57 % 61 % 1014,1 hPa 0,0 l/m 7,9 km/h (2 Bft) NO 45 5 min -8,6 C -0,9 C 12,4 km/h (3 Bft)
19.03.2018 14:35 -1,1 C 1,2 C -0,8 C 2,0 C 1,1 C 3,1 C 57 % 61 % 1014,2 hPa 0,0 l/m 8,2 km/h (2 Bft) N-NW 337 0 min -8,5 C -1,5 C 3,7 km/h (1 Bft)
19.03.2018 14:40 -0,9 C 1,2 C -0,5 C 2,2 C 1,7 C 3,1 C 57 % 61 % 1014,2 hPa 0,0 l/m 7,9 km/h (2 Bft) O-NO 67 0 min -8,3 C -0,7 C 6,9 km/h (2 Bft)
19.03.2018 14:45 -0,7 C 1,2 C -0,5 C 3,1 C 3,1 C 3,8 C 57 % 61 % 1014,2 hPa 0,0 l/m 5,6 km/h (1 Bft) O-NO 67 5 min -8,1 C 1,7 C 6,9 km/h (2 Bft)
19.03.2018 14:50 -0,7 C 1,2 C -0,3 C 3,2 C 3,2 C 3,9 C 57 % 61 % 1014,2 hPa 0,0 l/m 6,1 km/h (2 Bft) NO 45 5 min -8,1 C 1,6 C 6,9 km/h (2 Bft)
19.03.2018 14:55 -0,5 C 1,2 C -0,5 C 2,7 C 2,7 C 3,2 C 55 % 59 % 1014,2 hPa 0,0 l/m 7,1 km/h (2 Bft) O-NO 67 0 min -8,4 C 0,7 C 15,8 km/h (3 Bft)
19.03.2018 15:00 -0,8 C 1,2 C -0,5 C 2,7 C 1,7 C 3,5 C 54 % 58 % 1014,2 hPa 0,0 l/m 7,9 km/h (2 Bft) NO 45 5 min -8,9 C -0,7 C 9,0 km/h (2 Bft)
19.03.2018 15:05 -0,5 C 1,2 C -0,4 C 2,9 C 2,9 C 3,4 C 55 % 60 % 1014,2 hPa 0,0 l/m 6,6 km/h (2 Bft) O-NO 67 5 min -8,4 C 1,1 C 4,5 km/h (1 Bft)
19.03.2018 15:10 -0,3 C 1,2 C -0,3 C 4,2 C 4,2 C 4,5 C 55 % 59 % 1014,2 hPa 0,0 l/m 5,0 km/h (1 Bft) N-NO 22 5 min -8,2 C 3,2 C 5,5 km/h (1 Bft)
19.03.2018 15:15 -0,5 C 1,2 C -0,5 C 3,5 C 3,5 C 4,0 C 53 % 58 % 1013,9 hPa 0,0 l/m 5,6 km/h (1 Bft) O-NO 67 5 min -8,9 C 2,1 C 12,6 km/h (3 Bft)
19.03.2018 15:20 -0,5 C 1,2 C -0,3 C 2,4 C 2,4 C 2,9 C 53 % 57 % 1013,9 hPa 0,0 l/m 7,2 km/h (2 Bft) NO 45 0 min -8,9 C 0,3 C 4,8 km/h (1 Bft)
19.03.2018 15:25 -0,5 C 1,2 C -0,3 C 3,2 C 3,2 C 3,7 C 54 % 58 % 1013,9 hPa 0,0 l/m 6,3 km/h (2 Bft) SO 135 5 min -8,6 C 1,5 C 5,1 km/h (1 Bft)
19.03.2018 15:30 -0,3 C 1,2 C -0,3 C 4,4 C 4,4 C 4,7 C 54 % 58 % 1013,9 hPa 0,0 l/m 4,2 km/h (1 Bft) N-NO 22 5 min -8,5 C 4,4 C 7,9 km/h (2 Bft)
19.03.2018 15:35 -0,1 C 1,2 C -0,1 C 5,0 C 5,0 C 5,1 C 53 % 58 % 1013,9 hPa 0,0 l/m 3,9 km/h (1 Bft) NO 45 5 min -8,5 C 5,0 C 5,0 km/h (1 Bft)
19.03.2018 15:40 -0,1 C 1,2 C -0,1 C 5,1 C 5,1 C 5,2 C 53 % 57 % 1013,9 hPa 0,0 l/m 3,7 km/h (1 Bft) O-NO 67 5 min -8,5 C 5,1 C 6,1 km/h (2 Bft)
19.03.2018 15:45 -0,2 C 1,2 C -0,1 C 5,1 C 5,1 C 5,3 C 53 % 58 % 1013,9 hPa 0,0 l/m 3,7 km/h (1 Bft) N-NO 22 5 min -8,6 C 5,1 C 3,5 km/h (1 Bft)
19.03.2018 15:50 -0,2 C 1,2 C -0,3 C 4,5 C 4,5 C 4,7 C 52 % 57 % 1013,9 hPa 0,0 l/m 4,5 km/h (1 Bft) NO 45 5 min -8,8 C 4,5 C 6,1 km/h (2 Bft)
19.03.2018 15:55 -0,3 C 1,2 C -0,4 C 4,3 C 4,3 C 4,6 C 52 % 57 % 1013,9 hPa 0,0 l/m 4,5 km/h (1 Bft) N-NO 22 5 min -8,9 C 4,3 C 5,1 km/h (1 Bft)
19.03.2018 16:00 -0,2 C 1,2 C -0,1 C 4,6 C 4,6 C 4,8 C 52 % 57 % 1013,9 hPa 0,0 l/m 4,2 km/h (1 Bft) N-NO 22 5 min -8,8 C 4,6 C 3,4 km/h (1 Bft)
19.03.2018 16:05 -0,2 C 1,2 C -0,3 C 4,0 C 4,0 C 4,2 C 51 % 55 % 1013,9 hPa 0,0 l/m 4,5 km/h (1 Bft) NO 45 5 min -9,1 C 4,0 C 7,9 km/h (2 Bft)
19.03.2018 16:10 -0,3 C 1,2 C -0,3 C 2,8 C 2,8 C 3,1 C 49 % 54 % 1013,9 hPa 0,0 l/m 6,0 km/h (2 Bft) O-NO 67 0 min -9,7 C 1,2 C 8,7 km/h (2 Bft)
19.03.2018 16:15 -0,3 C 1,2 C -0,3 C 2,2 C 2,2 C 2,5 C 49 % 54 % 1013,9 hPa 0,0 l/m 6,3 km/h (2 Bft) O-NO 67 0 min -9,7 C 0,4 C 7,6 km/h (2 Bft)
19.03.2018 16:20 -0,4 C 1,2 C -0,3 C 1,7 C 1,7 C 2,1 C 48 % 54 % 1013,9 hPa 0,0 l/m 6,0 km/h (2 Bft) NO 45 0 min -10,0 C -0,1 C 9,2 km/h (2 Bft)
19.03.2018 16:25 -0,3 C 1,2 C -0,3 C 1,9 C 1,9 C 2,2 C 49 % 54 % 1013,9 hPa 0,0 l/m 5,1 km/h (1 Bft) O-NO 67 0 min -9,7 C 0,5 C 4,7 km/h (1 Bft)
19.03.2018 16:30 -0,1 C 1,2 C -0,3 C 2,3 C 2,3 C 2,4 C 49 % 54 % 1013,9 hPa 0,0 l/m 4,2 km/h (1 Bft) O-NO 67 0 min -9,5 C 2,3 C 6,3 km/h (2 Bft)
19.03.2018 16:35 -0,3 C 1,2 C -0,1 C 1,7 C 1,7 C 2,0 C 48 % 53 % 1013,9 hPa 0,0 l/m 4,5 km/h (1 Bft) O-NO 67 0 min -9,9 C 1,7 C 4,8 km/h (1 Bft)
19.03.2018 16:40 -0,3 C 1,2 C 0,1 C 1,2 C 1,2 C 1,5 C 48 % 54 % 1013,9 hPa 0,0 l/m 4,8 km/h (1 Bft) O-NO 67 0 min -9,9 C -0,1 C 7,6 km/h (2 Bft)
19.03.2018 16:45 -0,3 C 1,2 C -0,1 C 0,6 C 0,6 C 0,9 C 48 % 53 % 1013,9 hPa 0,0 l/m 4,8 km/h (1 Bft) NO 45 0 min -9,9 C -0,8 C 5,8 km/h (2 Bft)
19.03.2018 16:50 -0,4 C 1,2 C -0,1 C 0,2 C 0,2 C 0,6 C 48 % 53 % 1013,9 hPa 0,0 l/m 5,0 km/h (1 Bft) NO 45 0 min -10,0 C -1,4 C 4,7 km/h (1 Bft)
19.03.2018 16:55 -0,3 C 1,2 C -0,3 C 1,3 C 1,3 C 1,6 C 48 % 53 % 1014,1 hPa 0,0 l/m 3,9 km/h (1 Bft) W 270 0 min -9,9 C 1,3 C 4,2 km/h (1 Bft)
19.03.2018 17:00 -0,3 C 1,2 C -0,4 C 1,5 C 1,5 C 1,8 C 48 % 53 % 1014,1 hPa 0,0 l/m 3,4 km/h (1 Bft) NO 45 0 min -9,9 C 1,5 C 3,1 km/h (1 Bft)
19.03.2018 17:05 -0,3 C 1,2 C -0,5 C 0,6 C 0,6 C 0,9 C 47 % 52 % 1014,1 hPa 0,0 l/m 4,0 km/h (1 Bft) N-NO 22 0 min -10,2 C 0,6 C 5,1 km/h (1 Bft)
19.03.2018 17:10 -0,4 C 1,2 C -0,5 C 0,2 C 0,2 C 0,6 C 47 % 52 % 1014,1 hPa 0,0 l/m 4,5 km/h (1 Bft) O-NO 67 0 min -10,3 C 0,2 C 5,0 km/h (1 Bft)
19.03.2018 17:15 -0,5 C 1,2 C -0,5 C 0,2 C 0,2 C 0,7 C 47 % 53 % 1014,1 hPa 0,0 l/m 4,0 km/h (1 Bft) O-NO 67 0 min -10,4 C 0,2 C 2,9 km/h (1 Bft)
19.03.2018 17:20 -0,5 C 1,2 C -0,7 C 0,6 C 0,6 C 1,1 C 48 % 53 % 1014,1 hPa 0,0 l/m 3,1 km/h (1 Bft) O-NO 67 0 min -10,1 C 0,6 C 3,9 km/h (1 Bft)
19.03.2018 17:25 -0,5 C 1,2 C -0,7 C 0,8 C 0,8 C 1,3 C 48 % 53 % 1014,1 hPa 0,0 l/m 2,7 km/h (1 Bft) NO 45 0 min -10,1 C 0,8 C 4,8 km/h (1 Bft)
19.03.2018 17:30 -0,5 C 1,2 C -0,8 C 0,2 C 0,2 C 0,7 C 48 % 54 % 1014,1 hPa 0,0 l/m 3,4 km/h (1 Bft) N-NO 22 0 min -10,1 C 0,2 C 4,0 km/h (1 Bft)
19.03.2018 17:35 -0,5 C 1,2 C -0,9 C -0,2 C -0,2 C 0,3 C 49 % 55 % 1014,1 hPa 0,0 l/m 3,2 km/h (1 Bft) N-NO 22 0 min -9,9 C -0,2 C 4,2 km/h (1 Bft)
19.03.2018 17:40 -0,6 C 1,2 C -0,9 C -0,2 C -0,2 C 0,4 C 49 % 55 % 1014,1 hPa 0,0 l/m 2,9 km/h (1 Bft) NO 45 0 min -10,0 C -0,2 C 2,7 km/h (1 Bft)
19.03.2018 17:45 -0,7 C 1,2 C -1,1 C -0,5 C -0,5 C 0,2 C 49 % 55 % 1014,1 hPa 0,0 l/m 2,9 km/h (1 Bft) N-NO 22 0 min -10,1 C -0,5 C 3,9 km/h (1 Bft)
19.03.2018 17:50 -0,7 C 1,2 C -1,3 C -0,7 C -0,8 C 0,0 C 49 % 55 % 1014,1 hPa 0,0 l/m 2,9 km/h (1 Bft) NO 45 0 min -10,1 C -0,8 C 2,4 km/h (1 Bft)
19.03.2018 17:55 -0,9 C 1,2 C -1,5 C -0,9 C -1,0 C 0,0 C 50 % 56 % 1014,1 hPa 0,0 l/m 1,6 km/h (1 Bft) NO 45 0 min -10,0 C -1,0 C 1,8 km/h (1 Bft)
19.03.2018 18:00 -0,9 C 1,2 C -1,5 C -1,1 C -1,4 C 0,0 C 50 % 56 % 1014,1 hPa 0,0 l/m 0,5 km/h (0 Bft) N-NW 337 0 min -10,0 C -1,4 C 0,0 km/h (0 Bft)
19.03.2018 18:05 -1,1 C 1,2 C -2,0 C -1,4 C -2,0 C 0,0 C 50 % 57 % 1014,1 hPa 0,0 l/m 0,2 km/h (0 Bft) N 360 0 min -10,2 C -2,0 C 0,0 km/h (0 Bft)
19.03.2018 18:10 -1,2 C 1,2 C -2,2 C -1,6 C -2,3 C 0,0 C 51 % 57 % 1014,1 hPa 0,0 l/m 0,2 km/h (0 Bft) W-SW 247 0 min -10,0 C -2,3 C 0,0 km/h (0 Bft)
19.03.2018 18:15 -1,3 C 1,2 C -2,5 C -1,8 C -2,7 C 0,0 C 51 % 58 % 1014,2 hPa 0,0 l/m 0,0 km/h (0 Bft) NW 315 0 min -10,1 C -2,7 C 0,0 km/h (0 Bft)
19.03.2018 18:20 -1,3 C 1,2 C -2,6 C -1,8 C -2,9 C 0,0 C 51 % 58 % 1014,2 hPa 0,0 l/m 0,0 km/h (0 Bft) W-NW 292 0 min -10,1 C -2,9 C 1,9 km/h (1 Bft)
19.03.2018 18:25 -1,7 C 1,2 C -2,5 C -2,3 C -3,4 C 0,0 C 52 % 59 % 1014,2 hPa 0,0 l/m 0,5 km/h (0 Bft) N-NW 337 0 min -10,2 C -3,4 C 1,6 km/h (1 Bft)
19.03.2018 18:30 -1,7 C 1,2 C -2,8 C -2,3 C -3,5 C 0,0 C 52 % 59 % 1014,2 hPa 0,0 l/m 0,5 km/h (0 Bft) NW 315 0 min -10,2 C -3,5 C 0,0 km/h (0 Bft)
19.03.2018 18:35 -1,9 C 1,2 C -2,9 C -2,6 C -3,9 C 0,0 C 53 % 60 % 1014,2 hPa 0,0 l/m 0,2 km/h (0 Bft) N-NO 22 0 min -10,2 C -3,9 C 0,0 km/h (0 Bft)
19.03.2018 18:40 -2,1 C 1,2 C -3,2 C -2,8 C -4,2 C 0,0 C 53 % 61 % 1014,2 hPa 0,0 l/m 0,0 km/h (0 Bft) N 360 0 min -10,4 C -4,2 C 0,0 km/h (0 Bft)
19.03.2018 18:45 -2,3 C 1,2 C -3,3 C -3,0 C -4,3 C 0,0 C 54 % 62 % 1014,2 hPa 0,0 l/m 0,0 km/h (0 Bft) SO 135 0 min -10,3 C -4,3 C 0,0 km/h (0 Bft)
19.03.2018 18:50 -2,3 C 1,2 C -3,5 C -3,1 C -4,6 C 0,0 C 54 % 62 % 1014,2 hPa 0,0 l/m 0,0 km/h (0 Bft) N-NW 337 0 min -10,3 C -4,6 C 0,0 km/h (0 Bft)
19.03.2018 18:55 -2,5 C 1,2 C -3,9 C -3,3 C -4,9 C 0,0 C 55 % 63 % 1014,2 hPa 0,0 l/m 0,0 km/h (0 Bft) O-NO 67 0 min -10,3 C -4,9 C 0,0 km/h (0 Bft)
19.03.2018 19:00 -2,7 C 1,2 C -4,1 C -3,4 C -4,9 C 0,0 C 56 % 64 % 1014,2 hPa 0,0 l/m 0,0 km/h (0 Bft) NO 45 0 min -10,2 C -4,9 C 0,0 km/h (0 Bft)
19.03.2018 19:05 -2,7 C 1,2 C -4,3 C -3,5 C -5,0 C 0,0 C 58 % 65 % 1014,2 hPa 0,0 l/m 0,0 km/h (0 Bft) NO 45 0 min -9,8 C -5,0 C 0,0 km/h (0 Bft)
19.03.2018 19:10 -2,7 C 1,2 C -4,4 C -3,5 C -5,0 C 0,0 C 58 % 66 % 1014,2 hPa 0,0 l/m 0,0 km/h (0 Bft) NO 45 0 min -9,8 C -5,0 C 0,0 km/h (0 Bft)
19.03.2018 19:15 -2,9 C 1,3 C -4,5 C -3,6 C -5,1 C 0,0 C 59 % 67 % 1014,2 hPa 0,0 l/m 0,0 km/h (0 Bft) NO 45 0 min -9,8 C -5,1 C 0,0 km/h (0 Bft)
19.03.2018 19:20 -3,1 C 1,3 C -4,5 C -3,8 C -5,2 C 0,0 C 60 % 67 % 1014,2 hPa 0,0 l/m 0,0 km/h (0 Bft) N-NW 337 0 min -9,7 C -5,2 C 0,0 km/h (0 Bft)
19.03.2018 19:25 -3,3 C 1,3 C -4,9 C -4,1 C -5,6 C 0,0 C 60 % 68 % 1014,2 hPa 0,0 l/m 0,0 km/h (0 Bft) SW 225 0 min -9,9 C -5,6 C 0,0 km/h (0 Bft)
19.03.2018 19:30 -3,3 C 1,3 C -4,9 C -4,2 C -5,9 C 0,0 C 61 % 69 % 1014,2 hPa 0,0 l/m 0,0 km/h (0 Bft) NW 315 0 min -9,7 C -5,9 C 0,0 km/h (0 Bft)
19.03.2018 19:35 -3,6 C 1,3 C -5,1 C -4,5 C -6,2 C 0,0 C 61 % 69 % 1014,2 hPa 0,0 l/m 0,0 km/h (0 Bft) W 270 0 min -10,0 C -6,2 C 0,0 km/h (0 Bft)
19.03.2018 19:40 -3,8 C 1,3 C -5,2 C -4,7 C -6,4 C 0,0 C 61 % 69 % 1014,2 hPa 0,0 l/m 0,0 km/h (0 Bft) NW 315 0 min -10,2 C -6,4 C 0,0 km/h (0 Bft)
19.03.2018 19:45 -4,0 C 1,3 C -5,3 C -4,9 C -6,6 C 0,0 C 62 % 70 % 1014,2 hPa 0,0 l/m 0,0 km/h (0 Bft) O 90 0 min -10,2 C -6,6 C 0,0 km/h (0 Bft)
19.03.2018 19:50 -4,1 C 1,3 C -5,3 C -4,9 C -6,6 C 0,0 C 63 % 71 % 1014,2 hPa 0,0 l/m 0,0 km/h (0 Bft) O 90 0 min -10,1 C -6,6 C 0,0 km/h (0 Bft)
19.03.2018 19:55 -4,1 C 1,3 C -5,5 C -4,9 C -6,5 C 0,0 C 64 % 71 % 1014,2 hPa 0,0 l/m 0,0 km/h (0 Bft) NO 45 0 min -9,9 C -6,5 C 0,0 km/h (0 Bft)
19.03.2018 20:00 -4,1 C 1,3 C -5,5 C -4,9 C -6,6 C 0,0 C 65 % 72 % 1014,2 hPa 0,0 l/m 0,0 km/h (0 Bft) NO 45 0 min -9,7 C -6,6 C 0,0 km/h (0 Bft)
19.03.2018 20:05 -4,3 C 1,3 C -5,6 C -5,1 C -6,6 C 0,0 C 65 % 72 % 1014,2 hPa 0,0 l/m 0,0 km/h (0 Bft) O-NO 67 0 min -9,9 C -6,6 C 0,0 km/h (0 Bft)
19.03.2018 20:10 -4,3 C 1,3 C -5,7 C -5,1 C -6,6 C 0,0 C 66 % 73 % 1014,2 hPa 0,0 l/m 0,0 km/h (0 Bft) NO 45 0 min -9,7 C -6,6 C 0,0 km/h (0 Bft)
19.03.2018 20:15 -4,5 C 1,2 C -5,7 C -5,2 C -6,7 C 0,0 C 66 % 74 % 1014,8 hPa 0,0 l/m 0,0 km/h (0 Bft) NO 45 0 min -9,9 C -6,7 C 0,0 km/h (0 Bft)
19.03.2018 20:20 -4,5 C 1,2 C -5,8 C -5,2 C -6,7 C 0,0 C 67 % 74 % 1014,8 hPa 0,0 l/m 0,0 km/h (0 Bft) O-NO 67 0 min -9,7 C -6,7 C 0,0 km/h (0 Bft)
19.03.2018 20:25 -4,5 C 1,2 C -5,7 C -5,2 C -6,6 C 0,0 C 68 % 75 % 1014,8 hPa 0,0 l/m 0,0 km/h (0 Bft) NO 45 0 min -9,5 C -6,6 C 0,0 km/h (0 Bft)
19.03.2018 20:30 -4,7 C 1,2 C -5,9 C -5,4 C -6,7 C 0,0 C 68 % 75 % 1014,8 hPa 0,0 l/m 0,0 km/h (0 Bft) NO 45 0 min -9,7 C -6,7 C 0,0 km/h (0 Bft)
19.03.2018 20:35 -4,7 C 1,2 C -5,9 C -5,4 C -6,8 C 0,0 C 69 % 75 % 1014,8 hPa 0,0 l/m 0,0 km/h (0 Bft) NO 45 0 min -9,5 C -6,8 C 0,0 km/h (0 Bft)
19.03.2018 20:40 -4,9 C 1,2 C -5,9 C -5,6 C -7,0 C 0,0 C 69 % 75 % 1014,8 hPa 0,0 l/m 0,0 km/h (0 Bft) NW 315 0 min -9,7 C -7,0 C 0,0 km/h (0 Bft)
19.03.2018 20:45 -5,1 C 1,2 C -6,1 C -5,9 C -7,4 C 0,0 C 69 % 76 % 1014,8 hPa 0,0 l/m 0,0 km/h (0 Bft) NW 315 0 min -9,9 C -7,4 C 0,0 km/h (0 Bft)
19.03.2018 20:50 -5,2 C 1,2 C -6,1 C -6,0 C -7,6 C 0,0 C 69 % 76 % 1014,8 hPa 0,0 l/m 0,0 km/h (0 Bft) N-NO 22 0 min -10,0 C -7,6 C 0,0 km/h (0 Bft)
19.03.2018 20:55 -5,3 C 1,2 C -6,1 C -6,0 C -7,5 C 0,0 C 70 % 76 % 1014,9 hPa 0,0 l/m 0,0 km/h (0 Bft) O-NO 67 0 min -9,9 C -7,5 C 0,0 km/h (0 Bft)
19.03.2018 21:00 -5,3 C 1,2 C -6,1 C -6,0 C -7,3 C 0,0 C 71 % 77 % 1014,9 hPa 0,0 l/m 0,0 km/h (0 Bft) O-NO 67 0 min -9,7 C -7,3 C 0,0 km/h (0 Bft)
19.03.2018 21:05 -5,1 C 1,2 C -6,1 C -5,8 C -7,3 C 0,0 C 71 % 77 % 1014,9 hPa 0,0 l/m 0,0 km/h (0 Bft) NO 45 0 min -9,5 C -7,3 C 0,0 km/h (0 Bft)
19.03.2018 21:10 -5,3 C 1,2 C -6,1 C -6,0 C -7,3 C 0,0 C 71 % 77 % 1014,9 hPa 0,0 l/m 0,0 km/h (0 Bft) O-NO 67 0 min -9,7 C -7,3 C 0,0 km/h (0 Bft)
19.03.2018 21:15 -5,3 C 1,2 C -6,3 C -5,9 C -7,2 C 0,0 C 72 % 78 % 1015,1 hPa 0,0 l/m 0,0 km/h (0 Bft) O 90 0 min -9,5 C -7,2 C 0,0 km/h (0 Bft)
19.03.2018 21:20 -5,3 C 1,2 C -6,4 C -5,9 C -7,2 C 0,0 C 72 % 78 % 1015,1 hPa 0,0 l/m 0,0 km/h (0 Bft) O-NO 67 0 min -9,5 C -7,2 C 0,0 km/h (0 Bft)
19.03.2018 21:25 -5,3 C 1,2 C -6,3 C -5,9 C -7,2 C 0,0 C 72 % 78 % 1015,1 hPa 0,0 l/m 0,0 km/h (0 Bft) NO 45 0 min -9,5 C -7,2 C 0,0 km/h (0 Bft)
19.03.2018 21:30 -5,3 C 1,2 C -6,5 C -6,0 C -7,3 C 0,0 C 72 % 78 % 1015,1 hPa 0,0 l/m 0,0 km/h (0 Bft) NO 45 0 min -9,5 C -7,3 C 0,0 km/h (0 Bft)
19.03.2018 21:35 -5,5 C 1,2 C -6,5 C -6,1 C -7,4 C 0,0 C 72 % 78 % 1014,8 hPa 0,0 l/m 0,0 km/h (0 Bft) NO 45 0 min -9,7 C -7,4 C 0,0 km/h (0 Bft)
19.03.2018 21:40 -5,6 C 1,2 C -6,6 C -6,3 C -7,6 C 0,0 C 72 % 78 % 1014,8 hPa 0,0 l/m 0,0 km/h (0 Bft) N-NO 22 0 min -9,8 C -7,6 C 0,0 km/h (0 Bft)
19.03.2018 21:45 -5,7 C 1,2 C -6,7 C -6,4 C -7,9 C 0,0 C 72 % 79 % 1014,8 hPa 0,0 l/m 0,0 km/h (0 Bft) W 270 0 min -9,9 C -7,9 C 0,0 km/h (0 Bft)
19.03.2018 21:50 -5,9 C 1,2 C -6,7 C -6,6 C -8,1 C 0,0 C 72 % 79 % 1014,8 hPa 0,0 l/m 0,0 km/h (0 Bft) SO 135 0 min -10,1 C -8,1 C 0,0 km/h (0 Bft)
19.03.2018 21:55 -6,0 C 1,2 C -6,9 C -6,8 C -8,3 C 0,0 C 72 % 79 % 1014,8 hPa 0,0 l/m 0,0 km/h (0 Bft) SW 225 0 min -10,2 C -8,3 C 0,0 km/h (0 Bft)
19.03.2018 22:00 -6,1 C 1,2 C -6,9 C -6,9 C -8,5 C 0,0 C 72 % 79 % 1014,8 hPa 0,0 l/m 0,0 km/h (0 Bft) SW 225 0 min -10,3 C -8,5 C 0,0 km/h (0 Bft)
19.03.2018 22:05 -6,1 C 1,2 C -6,9 C -6,9 C -8,4 C 0,0 C 73 % 80 % 1014,8 hPa 0,0 l/m 0,0 km/h (0 Bft) O-NO 67 0 min -10,1 C -8,4 C 0,0 km/h (0 Bft)
19.03.2018 22:10 -6,1 C 1,2 C -6,9 C -6,8 C -8,3 C 0,0 C 74 % 80 % 1014,8 hPa 0,0 l/m 0,0 km/h (0 Bft) O 90 0 min -10,0 C -8,3 C 0,0 km/h (0 Bft)
19.03.2018 22:15 -6,1 C 1,2 C -6,9 C -6,8 C -8,2 C 0,0 C 74 % 80 % 1014,4 hPa 0,0 l/m 0,0 km/h (0 Bft) O-NO 67 0 min -10,0 C -8,2 C 0,0 km/h (0 Bft)
19.03.2018 22:20 -6,1 C 1,2 C -6,9 C -6,8 C -8,2 C 0,0 C 75 % 80 % 1014,4 hPa 0,0 l/m 0,0 km/h (0 Bft) O-NO 67 0 min -9,8 C -8,2 C 0,0 km/h (0 Bft)
19.03.2018 22:25 -6,1 C 1,2 C -6,9 C -6,8 C -8,1 C 0,0 C 75 % 81 % 1014,4 hPa 0,0 l/m 0,0 km/h (0 Bft) O-NO 67 0 min -9,8 C -8,1 C 0,0 km/h (0 Bft)
19.03.2018 22:30 -6,1 C 1,2 C -7,1 C -6,8 C -8,2 C 0,0 C 75 % 81 % 1014,4 hPa 0,0 l/m 0,0 km/h (0 Bft) O-NO 67 0 min -9,8 C -8,2 C 0,0 km/h (0 Bft)
19.03.2018 22:35 -6,3 C 1,2 C -7,2 C -6,9 C -8,2 C 0,0 C 75 % 81 % 1014,3 hPa 0,0 l/m 0,0 km/h (0 Bft) N-NO 22 0 min -10,0 C -8,2 C 0,0 km/h (0 Bft)
19.03.2018 22:40 -6,3 C 1,2 C -7,3 C -7,0 C -8,4 C 0,0 C 75 % 81 % 1014,3 hPa 0,0 l/m 0,0 km/h (0 Bft) S 180 0 min -10,0 C -8,4 C 0,0 km/h (0 Bft)
19.03.2018 22:45 -6,3 C 1,2 C -7,3 C -7,1 C -8,7 C 0,0 C 75 % 81 % 1014,3 hPa 0,0 l/m 0,0 km/h (0 Bft) N-NW 337 0 min -10,0 C -8,7 C 0,0 km/h (0 Bft)
19.03.2018 22:50 -6,5 C 1,2 C -7,3 C -7,2 C -8,6 C 0,0 C 76 % 81 % 1014,3 hPa 0,0 l/m 0,0 km/h (0 Bft) NO 45 0 min -10,0 C -8,6 C 0,0 km/h (0 Bft)
19.03.2018 22:55 -6,5 C 1,2 C -7,4 C -7,3 C -8,8 C 0,0 C 76 % 81 % 1014,2 hPa 0,0 l/m 0,0 km/h (0 Bft) NO 45 0 min -10,0 C -8,8 C 0,0 km/h (0 Bft)
19.03.2018 23:00 -6,5 C 1,2 C -7,3 C -7,3 C -8,8 C 0,0 C 76 % 81 % 1014,2 hPa 0,0 l/m 0,0 km/h (0 Bft) NW 315 0 min -10,0 C -8,8 C 0,0 km/h (0 Bft)
19.03.2018 23:05 -6,8 C 1,2 C -7,3 C -7,6 C -9,1 C 0,0 C 76 % 82 % 1014,2 hPa 0,0 l/m 0,0 km/h (0 Bft) NO 45 0 min -10,3 C -9,1 C 0,0 km/h (0 Bft)
19.03.2018 23:10 -6,8 C 1,2 C -7,3 C -7,6 C -9,1 C 0,0 C 76 % 82 % 1014,2 hPa 0,0 l/m 0,0 km/h (0 Bft) N-NO 22 0 min -10,3 C -9,1 C 0,0 km/h (0 Bft)
19.03.2018 23:15 -6,8 C 1,2 C -7,5 C -7,5 C -9,0 C 0,0 C 77 % 82 % 1014,2 hPa 0,0 l/m 0,0 km/h (0 Bft) S-SO 157 0 min -10,1 C -9,0 C 0,0 km/h (0 Bft)
19.03.2018 23:20 -6,9 C 1,2 C -7,3 C -7,6 C -9,1 C 0,0 C 77 % 82 % 1014,2 hPa 0,0 l/m 0,0 km/h (0 Bft) W-SW 247 0 min -10,2 C -9,1 C 0,0 km/h (0 Bft)
19.03.2018 23:25 -6,9 C 1,2 C -7,5 C -7,7 C -9,2 C 0,0 C 77 % 82 % 1014,2 hPa 0,0 l/m 0,0 km/h (0 Bft) W-SW 247 0 min -10,2 C -9,2 C 0,0 km/h (0 Bft)
19.03.2018 23:30 -6,9 C 1,2 C -7,6 C -7,7 C -9,3 C 0,0 C 77 % 82 % 1014,2 hPa 0,0 l/m 0,0 km/h (0 Bft) O-NO 67 0 min -10,2 C -9,3 C 0,0 km/h (0 Bft)
19.03.2018 23:35 -6,9 C 1,2 C -7,7 C -7,7 C -9,3 C 0,0 C 77 % 82 % 1014,7 hPa 0,0 l/m 0,0 km/h (0 Bft) NW 315 0 min -10,2 C -9,3 C 0,0 km/h (0 Bft)
19.03.2018 23:40 -7,1 C 1,2 C -7,8 C -7,9 C -9,4 C 0,0 C 77 % 82 % 1014,7 hPa 0,0 l/m 0,0 km/h (0 Bft) S-SO 157 0 min -10,4 C -9,4 C 0,0 km/h (0 Bft)
19.03.2018 23:45 -7,1 C 1,2 C -7,7 C -7,9 C -9,4 C 0,0 C 78 % 82 % 1014,7 hPa 0,0 l/m 0,0 km/h (0 Bft) S-SO 157 0 min -10,3 C -9,4 C 0,0 km/h (0 Bft)
19.03.2018 23:50 -7,1 C 1,2 C -7,9 C -7,9 C -9,5 C 0,0 C 78 % 82 % 1014,7 hPa 0,0 l/m 0,0 km/h (0 Bft) S-SO 157 0 min -10,3 C -9,5 C 0,0 km/h (0 Bft)
19.03.2018 23:55 -7,2 C 1,2 C -8,0 C -7,9 C -9,4 C 0,0 C 78 % 83 % 1014,7 hPa 0,0 l/m 0,0 km/h (0 Bft) O-NO 67 0 min -10,4 C -9,4 C 0,0 km/h (0 Bft)
_ Min-Zeit 06:35 07:40 06:30 06:15 06:15 00:00 17:05 17:05 15:15 - 05:45 - - - 06:35 00:20 02:55
Minimum _ -9,9 C 1,2 C -10,3 C -10,5 C -12,0 C 0,0 C 47 % 52 % 1013,9 hPa - 0,0 km/h (0 Bft) - - - -14,1 C -13,1 C 0,0 km/h (0 Bft)
_ Max-Zeit 15:35 00:00 12:00 15:40 15:40 07:30 23:45 23:55 00:15 00:00 12:00 - - 06:50 13:55 15:40 11:50
Maximum _ -0,1 C 1,3 C 1,9 C 5,1 C 5,1 C 5,7 C 78 % 83 % 1015,7 hPa 0,0 l/m 11,4 km/h
O-NO (2 Bft)
- - 5 min -7,9 C 5,1 C 20,9 km/h
O-NO (4 Bft)
Durchschnitt _ -4,8 C 1,2 C -4,8 C -4,2 C -5,1 C 1,0 C 63 % 68 % 1014,7 hPa #0,0 l/m 3,4 km/h (1 Bft) O-NO - #3:45 h -10,8 C -6,1 C 4,2 km/h (1 Bft)
2018 www.wetterstation-wechselburg.de